Terminal Aerodrome Forecast
Issued by NWS

Home | Current Version | Previous Version | Graphics & Text | Print | Product List | Glossary On
Versions: 1 2 3 4 5 6 7 8 9 10 11 12 13
000
FTUS43 KGRB 151700
TAFAUW
TAF
KAUW 151728Z 1518/1618 14011G18KT P6SM BKN250
     FM160000 11006KT P6SM BKN200
     FM161000 13004KT P6SM SCT250=

USA.gov is the U.S. government's official web portal to all federal, state and local government web resources and services.